Погода в Южных Коряки

Россия / Камчатский край     53°15′44″N   158°07′12″E
темп.,
°C
ветер,
м/с
пор.,
м/с
влажн.,
%
обл.,
%
осадки,
мм/ч
давл.,
гПа
погр.,
м
24 июля, сб
сб2400:00+11зюз448772 0.0 101469
03:00+12зюз338692 0.0 101377
06:00+12зюз338999 0.1 101394
09:00+13зюз338454 0.0 1014324
12:00+16зюз457369 0.1 1013833
15:00+13зюз4490100 0.7 1013192
18:00+14з338799 0.7 1013174
21:00+13з328899 0.0 101362
25 июля, вс
вс2500:00+13з329199 0.1 101352
03:00+13з2293100 0.0 101342
06:00+13з219498 0.0 101322
09:00+16з118429 0.0 1013367
12:00+19юз127393 0.1 1012816
15:00+21юз236280 0.1 10111288
18:00+20юз2369100 0.1 1011693
21:00+16зюз22845 0.0 101211
26 июля, пн
пн2600:00+13з21875 0.0 101210
03:00+12з2292100 0.0 101214
06:00+12з339783 0.0 101237
09:00+14з339073 0.0 1012281
12:00+19зюз34735 0.0 1011559
15:00+22зюз346866 0.0 10091004
18:00+21зюз587453 0.0 1009896
21:00+18зюз4489100 0.0 100960
27 июля, вт
вт2700:00+17зюз3394100 0.1 100997
03:00+16зюз3496100 0.0 1007166
06:00+15зюз4497100 0.0 1006201
09:00+17зюз4883100 0.1 1005429
12:00+14зюз4695100 2.4 1004248
15:00+14зюз579197 0.1 1004532
18:00+13зюз5692100 0.1 1004354
21:00+11зюз4596100 0.0 1005287
28 июля, ср
ср2800:00+11зюз459798 0.0 1005207
03:00+11з459794 0.0 1005233
06:00+11з4497100 0.0 1005244
09:00+12з448998 0.0 1005449
12:00+14з348198 0.0 1005507
15:00+18з336488 0.0 1003698
18:00+18зюз3368100 0.0 1004521
21:00+15зюз3380100 0.0 100433